DEVICE NETWORK
Gateway Status
13 ESP · realtime ~1s · history 60s
Weather
WS-MOD-01
ONLINE
Actuator
ACT-MOD-01
OFFLINE
Mainboard L3
MB-L3-01
ONLINE
Mainboard L5
MB-L5-01
ONLINE
Remote AC
AC-REMOTE-01
ONLINE
PZEM L3-01
PWR-L3-01
OFFLINE
PZEM L3-02
PWR-L3-02
OFFLINE
PZEM L3-03
PWR-L3-03
OFFLINE
PZEM L3-04
PWR-L3-04
OFFLINE
PZEM L5-01
PWR-L5-01
ONLINE
PZEM L5-02
PWR-L5-02
ONLINE
PZEM L5-03
PWR-L5-03
OFFLINE
PZEM L5-04
PWR-L5-04
OFFLINE
REPORT FILTER
DATABASE HISTORY
Periode & Sensor
REPORT RESULT
Data Sensor
09/08/2026 — 07/09/2026
EXPORT CSV
| NO | TANGGAL | WAKTU | DEVICE | CHANNEL | SENSOR | VALUE | UNIT |
|---|---|---|---|---|---|---|---|
| 401 | 07/09/2026 | 04:14:00 | MB-L3-01Mainboard Lantai 3 | L3-SHT-01-T | SHT20 1 Temperature | 27.80 | °C |
| 402 | 07/09/2026 | 04:14:00 | MB-L5-01Mainboard Lantai 5 | L5-SHT-02-RH | SHT20 2 Humidity | 46.20 | %RH |
| 403 | 07/09/2026 | 04:14:00 | MB-L3-01Mainboard Lantai 3 | L3-AI-01 | Analog Input 1 | 3.12 | V |
| 404 | 07/09/2026 | 04:14:00 | MB-L5-01Mainboard Lantai 5 | L5-LUX-01 | Illuminance / LUX 1 | 0.00 | lux |
| 405 | 07/09/2026 | 04:14:00 | MB-L5-01Mainboard Lantai 5 | L5-SHT-02-T | SHT20 2 Temperature | 28.20 | °C |
| 406 | 07/09/2026 | 04:14:00 | WS-MOD-01Weather Station Module | WS-TEMP | Suhu Udara | 18.30 | °C |
| 407 | 07/09/2026 | 04:13:00 | PWR-L5-01Power Meter L5 PZEM 01 | PZEM-L5-01-POWER | PZEM L5-01 Active Power | 10.40 | W |
| 408 | 07/09/2026 | 04:13:00 | MB-L3-01Mainboard Lantai 3 | L3-AI-02 | Analog Input 2 | 3.12 | V |
| 409 | 07/09/2026 | 04:13:00 | MB-L3-01Mainboard Lantai 3 | L3-SHT-03-T | SHT20 3 Temperature | 28.30 | °C |
| 410 | 07/09/2026 | 04:13:00 | MB-L5-01Mainboard Lantai 5 | L5-HFT-01 | Heat Flow Temperature 1 | 22.50 | °C |
| 411 | 07/09/2026 | 04:13:00 | PWR-L5-01Power Meter L5 PZEM 01 | PZEM-L5-01-ENERGY | PZEM L5-01 Energy | 0.11 | kWh |
| 412 | 07/09/2026 | 04:13:00 | MB-L5-01Mainboard Lantai 5 | L5-LUX-04 | Illuminance / LUX 4 | 0.10 | lux |
| 413 | 07/09/2026 | 04:13:00 | PWR-L5-01Power Meter L5 PZEM 01 | PZEM-L5-01-FREQ | PZEM L5-01 Frequency | 50.00 | Hz |
| 414 | 07/09/2026 | 04:13:00 | MB-L5-01Mainboard Lantai 5 | L5-SHT-01-T | SHT20 1 Temperature | 27.90 | °C |
| 415 | 07/09/2026 | 04:13:00 | PWR-L5-02Power Meter L5 PZEM 02 | PZEM-L5-02-FREQ | PZEM L5-02 Frequency | 50.00 | Hz |
| 416 | 07/09/2026 | 04:13:00 | MB-L5-01Mainboard Lantai 5 | L5-AI-05 | Analog Input 5 | 3.05 | V |
| 417 | 07/09/2026 | 04:13:00 | PWR-L5-01Power Meter L5 PZEM 01 | PZEM-L5-01-PF | PZEM L5-01 Power Factor | 0.38 | |
| 418 | 07/09/2026 | 04:13:00 | MB-L5-01Mainboard Lantai 5 | L5-AI-01 | Analog Input 1 | 3.05 | V |
| 419 | 07/09/2026 | 04:13:00 | MB-L3-01Mainboard Lantai 3 | L3-AI-06 | Analog Input 6 | 3.12 | V |
| 420 | 07/09/2026 | 04:13:00 | WS-MOD-01Weather Station Module | WS-WIND | Kecepatan Angin | 7.80 | m/s |
| 421 | 07/09/2026 | 04:13:00 | MB-L3-01Mainboard Lantai 3 | L3-LUX-03 | Illuminance / LUX 3 | 0.20 | lux |
| 422 | 07/09/2026 | 04:13:00 | AC-REMOTE-01Remote AC | AC-MODE | AC Operating Mode | 1.00 | code |
| 423 | 07/09/2026 | 04:13:00 | MB-L3-01Mainboard Lantai 3 | L3-LUX-05 | Illuminance / LUX 5 | 0.30 | lux |
| 424 | 07/09/2026 | 04:13:00 | MB-L3-01Mainboard Lantai 3 | L3-AI-03 | Analog Input 3 | 3.12 | V |
| 425 | 07/09/2026 | 04:13:00 | PWR-L5-02Power Meter L5 PZEM 02 | PZEM-L5-02-CURR | PZEM L5-02 Current | 0.00 | A |
| 426 | 07/09/2026 | 04:13:00 | MB-L5-01Mainboard Lantai 5 | L5-HFT-02 | Heat Flow Temperature 2 | 21.60 | °C |
| 427 | 07/09/2026 | 04:13:00 | MB-L5-01Mainboard Lantai 5 | L5-LUX-06 | Illuminance / LUX 6 | 0.10 | lux |
| 428 | 07/09/2026 | 04:13:00 | MB-L5-01Mainboard Lantai 5 | L5-BGT-01 | Black Globe Temperature 1 | 26.00 | °C |
| 429 | 07/09/2026 | 04:13:00 | MB-L3-01Mainboard Lantai 3 | L3-RAD-01 | Radiation 1 | 1.00 | W/m² |
| 430 | 07/09/2026 | 04:13:00 | MB-L3-01Mainboard Lantai 3 | L3-LUX-01 | Illuminance / LUX 1 | 0.20 | lux |
| 431 | 07/09/2026 | 04:13:00 | MB-L3-01Mainboard Lantai 3 | L3-SHT-01-RH | SHT20 1 Humidity | 47.00 | %RH |
| 432 | 07/09/2026 | 04:13:00 | MB-L5-01Mainboard Lantai 5 | L5-AI-02 | Analog Input 2 | 3.05 | V |
| 433 | 07/09/2026 | 04:13:00 | MB-L5-01Mainboard Lantai 5 | L5-LUX-02 | Illuminance / LUX 2 | 0.10 | lux |
| 434 | 07/09/2026 | 04:13:00 | WS-MOD-01Weather Station Module | WS-RH | Kelembapan Udara | 81.60 | %RH |
| 435 | 07/09/2026 | 04:13:00 | MB-L5-01Mainboard Lantai 5 | L5-AI-06 | Analog Input 6 | 3.05 | V |
| 436 | 07/09/2026 | 04:13:00 | MB-L3-01Mainboard Lantai 3 | L3-SHT-03-RH | SHT20 3 Humidity | 46.20 | %RH |
| 437 | 07/09/2026 | 04:13:00 | MB-L5-01Mainboard Lantai 5 | L5-RAD-02 | Radiation 2 | 1.00 | W/m² |
| 438 | 07/09/2026 | 04:13:00 | MB-L5-01Mainboard Lantai 5 | L5-SHT-03-RH | SHT20 3 Humidity | 46.90 | %RH |
| 439 | 07/09/2026 | 04:13:00 | WS-MOD-01Weather Station Module | WS-DIR | Arah Angin | 86.30 | ° |
| 440 | 07/09/2026 | 04:13:00 | MB-L3-01Mainboard Lantai 3 | L3-LUX-02 | Illuminance / LUX 2 | 0.20 | lux |
| 441 | 07/09/2026 | 04:13:00 | PWR-L5-02Power Meter L5 PZEM 02 | PZEM-L5-02-ENERGY | PZEM L5-02 Energy | 0.04 | kWh |
| 442 | 07/09/2026 | 04:13:00 | MB-L3-01Mainboard Lantai 3 | L3-SHT-02-T | SHT20 2 Temperature | 28.10 | °C |
| 443 | 07/09/2026 | 04:13:00 | MB-L5-01Mainboard Lantai 5 | L5-RAD-01 | Radiation 1 | 1.00 | W/m² |
| 444 | 07/09/2026 | 04:13:00 | MB-L3-01Mainboard Lantai 3 | L3-AI-04 | Analog Input 4 | 3.12 | V |
| 445 | 07/09/2026 | 04:13:00 | MB-L5-01Mainboard Lantai 5 | L5-BGT-02 | Black Globe Temperature 2 | 26.10 | °C |
| 446 | 07/09/2026 | 04:13:00 | MB-L5-01Mainboard Lantai 5 | L5-SHT-03-T | SHT20 3 Temperature | 28.20 | °C |
| 447 | 07/09/2026 | 04:13:00 | MB-L3-01Mainboard Lantai 3 | L3-LUX-04 | Illuminance / LUX 4 | 0.10 | lux |
| 448 | 07/09/2026 | 04:13:00 | MB-L5-01Mainboard Lantai 5 | L5-AI-03 | Analog Input 3 | 3.05 | V |
| 449 | 07/09/2026 | 04:13:00 | AC-REMOTE-01Remote AC | AC-SETPOINT | AC Set Temperature | 23.00 | °C |
| 450 | 07/09/2026 | 04:13:00 | MB-L3-01Mainboard Lantai 3 | L3-SHT-02-RH | SHT20 2 Humidity | 46.30 | %RH |
| 451 | 07/09/2026 | 04:13:00 | MB-L5-01Mainboard Lantai 5 | L5-ST-01 | Surface Temperature 1 | 22.60 | °C |
| 452 | 07/09/2026 | 04:13:00 | PWR-L5-02Power Meter L5 PZEM 02 | PZEM-L5-02-PF | PZEM L5-02 Power Factor | 0.00 | |
| 453 | 07/09/2026 | 04:13:00 | PWR-L5-02Power Meter L5 PZEM 02 | PZEM-L5-02-VOLT | PZEM L5-02 Voltage | 226.70 | V |
| 454 | 07/09/2026 | 04:13:00 | MB-L3-01Mainboard Lantai 3 | L3-RAD-02 | Radiation 2 | 0.00 | W/m² |
| 455 | 07/09/2026 | 04:13:00 | MB-L3-01Mainboard Lantai 3 | L3-SHT-01-T | SHT20 1 Temperature | 27.90 | °C |
| 456 | 07/09/2026 | 04:13:00 | MB-L5-01Mainboard Lantai 5 | L5-SHT-02-RH | SHT20 2 Humidity | 46.10 | %RH |
| 457 | 07/09/2026 | 04:13:00 | MB-L3-01Mainboard Lantai 3 | L3-AI-01 | Analog Input 1 | 3.12 | V |
| 458 | 07/09/2026 | 04:13:00 | MB-L5-01Mainboard Lantai 5 | L5-LUX-01 | Illuminance / LUX 1 | 0.00 | lux |
| 459 | 07/09/2026 | 04:13:00 | MB-L5-01Mainboard Lantai 5 | L5-SHT-02-T | SHT20 2 Temperature | 28.30 | °C |
| 460 | 07/09/2026 | 04:13:00 | WS-MOD-01Weather Station Module | WS-TEMP | Suhu Udara | 18.30 | °C |
| 461 | 07/09/2026 | 04:13:00 | MB-L5-01Mainboard Lantai 5 | L5-ST-02 | Surface Temperature 2 | 21.90 | °C |
| 462 | 07/09/2026 | 04:13:00 | MB-L5-01Mainboard Lantai 5 | L5-SHT-01-RH | SHT20 1 Humidity | 47.20 | %RH |
| 463 | 07/09/2026 | 04:13:00 | MB-L5-01Mainboard Lantai 5 | L5-BGT-03 | Black Globe Temperature 3 | 25.80 | °C |
| 464 | 07/09/2026 | 04:13:00 | MB-L3-01Mainboard Lantai 3 | L3-AI-05 | Analog Input 5 | 3.12 | V |
| 465 | 07/09/2026 | 04:13:00 | MB-L3-01Mainboard Lantai 3 | L3-LUX-06 | Illuminance / LUX 6 | 0.30 | lux |
| 466 | 07/09/2026 | 04:13:00 | MB-L5-01Mainboard Lantai 5 | L5-AI-04 | Analog Input 4 | 3.05 | V |
| 467 | 07/09/2026 | 04:13:00 | PWR-L5-02Power Meter L5 PZEM 02 | PZEM-L5-02-POWER | PZEM L5-02 Active Power | 0.00 | W |
| 468 | 07/09/2026 | 04:13:00 | AC-REMOTE-01Remote AC | AC-FAN | AC Fan Speed | 0.00 | code |
| 469 | 07/09/2026 | 04:13:00 | WS-MOD-01Weather Station Module | WS-PRES | Tekanan Udara | 910.00 | hPa |
| 470 | 07/09/2026 | 04:13:00 | PWR-L5-01Power Meter L5 PZEM 01 | PZEM-L5-01-VOLT | PZEM L5-01 Voltage | 226.80 | V |
| 471 | 07/09/2026 | 04:13:00 | AC-REMOTE-01Remote AC | AC-POWER | AC Power State | 1.00 | state |
| 472 | 07/09/2026 | 04:13:00 | MB-L5-01Mainboard Lantai 5 | L5-LUX-03 | Illuminance / LUX 3 | 0.10 | lux |
| 473 | 07/09/2026 | 04:13:00 | PWR-L5-01Power Meter L5 PZEM 01 | PZEM-L5-01-CURR | PZEM L5-01 Current | 0.12 | A |
| 474 | 07/09/2026 | 04:12:00 | AC-REMOTE-01Remote AC | AC-MODE | AC Operating Mode | 1.00 | code |
| 475 | 07/09/2026 | 04:12:00 | MB-L3-01Mainboard Lantai 3 | L3-LUX-05 | Illuminance / LUX 5 | 0.30 | lux |
| 476 | 07/09/2026 | 04:12:00 | MB-L3-01Mainboard Lantai 3 | L3-AI-03 | Analog Input 3 | 3.12 | V |
| 477 | 07/09/2026 | 04:12:00 | PWR-L5-02Power Meter L5 PZEM 02 | PZEM-L5-02-CURR | PZEM L5-02 Current | 0.00 | A |
| 478 | 07/09/2026 | 04:12:00 | MB-L5-01Mainboard Lantai 5 | L5-HFT-02 | Heat Flow Temperature 2 | 21.60 | °C |
| 479 | 07/09/2026 | 04:12:00 | MB-L5-01Mainboard Lantai 5 | L5-LUX-06 | Illuminance / LUX 6 | 0.10 | lux |
| 480 | 07/09/2026 | 04:12:00 | MB-L5-01Mainboard Lantai 5 | L5-BGT-01 | Black Globe Temperature 1 | 26.00 | °C |
| 481 | 07/09/2026 | 04:12:00 | MB-L3-01Mainboard Lantai 3 | L3-RAD-01 | Radiation 1 | 0.00 | W/m² |
| 482 | 07/09/2026 | 04:12:00 | MB-L3-01Mainboard Lantai 3 | L3-LUX-01 | Illuminance / LUX 1 | 0.20 | lux |
| 483 | 07/09/2026 | 04:12:00 | MB-L3-01Mainboard Lantai 3 | L3-SHT-01-RH | SHT20 1 Humidity | 47.10 | %RH |
| 484 | 07/09/2026 | 04:12:00 | MB-L5-01Mainboard Lantai 5 | L5-AI-02 | Analog Input 2 | 3.05 | V |
| 485 | 07/09/2026 | 04:12:00 | MB-L5-01Mainboard Lantai 5 | L5-LUX-02 | Illuminance / LUX 2 | 0.10 | lux |
| 486 | 07/09/2026 | 04:12:00 | WS-MOD-01Weather Station Module | WS-RH | Kelembapan Udara | 81.60 | %RH |
| 487 | 07/09/2026 | 04:12:00 | MB-L5-01Mainboard Lantai 5 | L5-AI-06 | Analog Input 6 | 3.05 | V |
| 488 | 07/09/2026 | 04:12:00 | MB-L3-01Mainboard Lantai 3 | L3-SHT-03-RH | SHT20 3 Humidity | 46.10 | %RH |
| 489 | 07/09/2026 | 04:12:00 | MB-L5-01Mainboard Lantai 5 | L5-RAD-02 | Radiation 2 | 1.00 | W/m² |
| 490 | 07/09/2026 | 04:12:00 | MB-L5-01Mainboard Lantai 5 | L5-SHT-03-RH | SHT20 3 Humidity | 46.70 | %RH |
| 491 | 07/09/2026 | 04:12:00 | WS-MOD-01Weather Station Module | WS-DIR | Arah Angin | 65.30 | ° |
| 492 | 07/09/2026 | 04:12:00 | MB-L3-01Mainboard Lantai 3 | L3-LUX-02 | Illuminance / LUX 2 | 0.20 | lux |
| 493 | 07/09/2026 | 04:12:00 | PWR-L5-02Power Meter L5 PZEM 02 | PZEM-L5-02-ENERGY | PZEM L5-02 Energy | 0.04 | kWh |
| 494 | 07/09/2026 | 04:12:00 | MB-L3-01Mainboard Lantai 3 | L3-SHT-02-T | SHT20 2 Temperature | 28.20 | °C |
| 495 | 07/09/2026 | 04:12:00 | MB-L5-01Mainboard Lantai 5 | L5-RAD-01 | Radiation 1 | 1.00 | W/m² |
| 496 | 07/09/2026 | 04:12:00 | MB-L3-01Mainboard Lantai 3 | L3-AI-04 | Analog Input 4 | 3.12 | V |
| 497 | 07/09/2026 | 04:12:00 | MB-L5-01Mainboard Lantai 5 | L5-BGT-02 | Black Globe Temperature 2 | 26.10 | °C |
| 498 | 07/09/2026 | 04:12:00 | MB-L5-01Mainboard Lantai 5 | L5-SHT-03-T | SHT20 3 Temperature | 28.20 | °C |
| 499 | 07/09/2026 | 04:12:00 | MB-L3-01Mainboard Lantai 3 | L3-LUX-04 | Illuminance / LUX 4 | 0.10 | lux |
| 500 | 07/09/2026 | 04:12:00 | MB-L5-01Mainboard Lantai 5 | L5-AI-03 | Analog Input 3 | 3.05 | V |
Menampilkan maksimal 100 data per halaman